FW7184 Weather Reports


Display with metric or nautical units.
time (UTC)temp
F
wind
direction
speed
MPH
gust
MPH
rain 1hr
in
rain 24hr
in
rain mn
in
humidity
%
barometer
mb
20260831001816 72 198 0.0 0.0 0.07 0.06 0.06 99 1019.2
20260831001311 72 196 0.0 0.0 0.05 0.05 0.05 99 1019.0
20260831000809 72 197 0.0 0.0 0.05 0.05 0.05 98 1019.0
20260831000310 73 197 0.0 0.0 0.07 0.04 0.04 98 1018.9
20260830235806 73 196 0.0 0.0 0.07 0.04 0.04 98 1018.8
20260830235305 73 196 0.0 0.0 0.05 0.03 0.03 97 1018.7
20260830234756 73 195 0.0 0.0 0.00 0.02 0.02 96 1018.9
20260830234253 73 196 0.0 0.0 0.07 0.02 0.02 96 1018.7
20260830233748 74 196 0.0 0.0 0.05 0.01 0.01 95 1018.4
20260830233243 74 197 0.0 0.0 0.05 0.01 0.01 94 1018.7
20260830232739 74 196 0.0 0.0 0.00 0.00 0.00 92 1018.7
20260830232235 74 194 0.0 0.0 0.00 0.00 0.00 91 1018.5
20260830231731 75 194 0.0 0.0 0.00 0.00 0.00 90 1018.4
20260830231230 75 194 0.0 0.0 0.00 0.00 0.00 90 1018.4
20260830230726 75 195 0.0 0.0 0.00 0.00 0.00 90 1018.4
20260830230221 75 194 0.0 0.0 0.00 0.00 0.00 89 1018.5
20260830225720 75 194 0.0 0.0 0.00 0.00 0.00 89 1018.2
20260830225215 75 205 0.0 0.0 0.00 0.00 0.00 88 1018.5
20260830224714 75 193 0.0 0.0 0.00 0.00 0.00 88 1018.6
20260830224210 75 194 0.0 0.0 0.00 0.00 0.00 88 1018.5
20260830223706 75 196 0.0 0.0 0.00 0.00 0.00 88 1018.4
20260830223201 75 200 0.0 0.0 0.00 0.00 0.00 88 1018.3
20260830222656 75 193 0.0 0.0 0.00 0.00 0.00 88 1018.4
20260830222152 75 195 0.0 0.0 0.00 0.00 0.00 88 1018.4
20260830221647 76 196 0.0 0.0 0.00 0.00 0.00 88 1018.3
20260830221144 76 193 0.0 0.0 0.00 0.00 0.00 88 1018.6
20260830220639 76 193 0.0 0.0 0.00 0.00 0.00 87 1018.7
20260830220138 76 196 0.0 0.0 0.00 0.00 0.00 87 1018.5
20260830215637 76 193 0.0 0.0 0.00 0.00 0.00 87 1018.7
20260830215131 76 195 0.0 0.0 0.00 0.00 0.00 86 1018.5
20260830214626 76 194 0.0 0.0 0.00 0.00 0.00 85 1018.6
20260830214121 76 194 0.0 0.0 0.00 0.00 0.00 86 1018.5
20260830213621 76 209 0.0 0.0 0.00 0.00 0.00 85 1018.4
20260830213116 77 182 0.0 0.0 0.00 0.00 0.00 85 1018.4
20260830212612 77 193 0.0 0.0 0.00 0.00 0.00 84 1018.4
20260830212107 77 190 0.0 0.0 0.00 0.00 0.00 84 1018.5
20260830211602 77 197 0.0 0.0 0.00 0.00 0.00 84 1018.4
20260830211101 77 205 0.0 0.0 0.00 0.00 0.00 84 1018.4
20260830210557 77 194 0.0 0.0 0.00 0.00 0.00 83 1018.4
20260830210056 78 254 0.0 0.0 0.00 0.00 0.00 83 1018.5
20260830205553 78 220 1.0 2.0 0.00 0.00 0.00 82 1018.7
20260830205050 77 203 0.0 0.0 0.00 0.00 0.00 83 1018.7
20260830204549 77 190 0.0 0.0 0.00 0.00 0.00 84 1018.8
20260830204048 77 246 1.0 3.0 0.00 0.00 0.00 83 1018.8
20260830203544 76 215 1.0 1.0 0.00 0.00 0.00 84 1018.9
20260830203038 76 180 0.0 0.0 0.00 0.00 0.00 85 1018.9
20260830202533 76 161 1.0 1.0 0.00 0.00 0.00 85 1019.2
20260830202029 76 191 0.0 0.0 0.00 0.00 0.00 85 1019.0
20260830201528 76 202 0.0 0.0 0.00 0.00 0.00 85 1019.1
20260830201023 75 163 1.0 1.0 0.00 0.00 0.00 85 1019.2
20260830200518 75 159 1.0 1.0 0.00 0.00 0.00 86 1019.1
20260830200017 75 156 0.0 1.0 0.00 0.00 0.00 86 1019.1
20260830195513 75 335 2.0 2.0 0.00 0.00 0.00 85 1018.9
20260830195011 75 236 0.0 0.0 0.00 0.00 0.00 86 1019.0
20260830194510 75 159 0.0 0.0 0.00 0.00 0.00 85 1019.3
20260830194005 75 194 0.0 0.0 0.00 0.00 0.00 85 1019.1
20260830193504 75 189 0.0 0.0 0.00 0.00 0.00 85 1019.2
20260830192959 75 183 0.0 1.0 0.00 0.00 0.00 85 1019.3
20260830192454 75 197 0.0 0.0 0.00 0.00 0.00 85 1019.4
20260830191949 75 211 0.0 0.0 0.00 0.00 0.00 85 1019.3
20260830191444 75 200 0.0 0.0 0.00 0.00 0.00 84 1019.5
20260830190940 75 192 0.0 0.0 0.00 0.00 0.00 84 1019.5
20260830190434 75 202 0.0 1.0 0.00 0.00 0.00 84 1020.0
20260830185934 75 185 0.0 0.0 0.00 0.00 0.00 85 1019.9
20260830185429 75 192 0.0 0.0 0.00 0.00 0.00 85 1019.9
20260830184925 75 189 1.0 1.0 0.00 0.00 0.00 84 1019.9
20260830184423 75 199 0.0 0.0 0.00 0.00 0.00 84 1020.1
20260830183923 75 181 0.0 0.0 0.00 0.00 0.00 83 1020.0
20260830183418 75 143 0.0 0.0 0.00 0.00 0.00 82 1019.9
20260830182914 75 189 0.0 0.0 0.00 0.00 0.00 82 1020.0
20260830182409 75 193 0.0 0.0 0.00 0.00 0.00 81 1020.3
20260830181905 76 184 0.0 0.0 0.00 0.00 0.00 79 1020.3
20260830181401 76 200 0.0 1.0 0.00 0.00 0.00 79 1020.3
20260830180900 76 198 0.0 1.0 0.00 0.00 0.00 79 1020.1
20260830180354 76 178 0.0 0.0 0.00 0.00 0.00 79 1020.7
20260830175853 75 245 1.0 1.0 0.00 0.00 0.00 78 1020.6
20260830175348 75 205 1.0 1.0 0.00 0.00 0.00 77 1020.5
20260830174843 75 183 0.0 1.0 0.00 0.00 0.00 78 1020.3
20260830174338 75 179 0.0 0.0 0.00 0.00 0.00 77 1020.5
20260830173833 75 190 0.0 1.0 0.00 0.00 0.00 76 1020.6
20260830173329 75 175 0.0 0.0 0.00 0.00 0.00 74 1020.3
20260830172825 75 190 0.0 0.0 0.00 0.00 0.00 74 1020.7
20260830172321 75 181 0.0 0.0 0.00 0.00 0.00 73 1021.0
20260830171816 76 204 0.0 1.0 0.00 0.00 0.00 71 1020.8
20260830171312 76 197 0.0 0.0 0.00 0.00 0.00 71 1021.0
20260830170807 76 200 0.0 0.0 0.00 0.00 0.00 71 1020.9
20260830170306 76 164 0.0 0.0 0.00 0.00 0.00 70 1021.0
20260830165804 77 201 0.0 1.0 0.00 0.00 0.00 67 1021.0
20260830165300 77 133 0.0 1.0 0.00 0.00 0.00 66 1021.1
20260830164751 78 161 0.0 0.0 0.00 0.00 0.00 65 1020.8
20260830164247 78 213 1.0 2.0 0.00 0.00 0.00 64 1020.8
20260830163743 77 161 1.0 1.0 0.00 0.00 0.00 65 1021.0
20260830163239 77 351 0.0 1.0 0.00 0.00 0.00 65 1021.0
20260830162733 76 197 0.0 0.0 0.00 0.00 0.00 69 1020.8
20260830162229 76 174 0.0 0.0 0.00 0.00 0.00 67 1021.0
20260830161725 76 189 0.0 1.0 0.00 0.00 0.00 65 1021.1
20260830161219 75 179 1.0 1.0 0.00 0.00 0.00 66 1021.1
20260830160715 76 176 1.0 1.0 0.00 0.00 0.00 65 1021.3
20260830160214 76 3 3.0 3.0 0.00 0.00 0.00 66 1021.4
20260830155711 76 216 1.0 2.0 0.00 0.00 0.00 66 1021.6
20260830155207 75 187 0.0 1.0 0.00 0.00 0.00 66 1021.7
20260830154702 74 201 0.0 0.0 0.00 0.00 0.00 69 1021.7
20260830154157 74 183 0.0 0.0 0.00 0.00 0.00 70 1021.8
20260830153654 74 204 0.0 0.0 0.00 0.00 0.00 70 1021.7
20260830153154 75 199 0.0 0.0 0.00 0.00 0.00 68 1021.8
20260830152652 75 212 1.0 1.0 0.00 0.00 0.00 67 1022.0
20260830152152 74 191 0.0 0.0 0.00 0.00 0.00 69 1022.1
20260830151647 74 181 0.0 0.0 0.00 0.00 0.00 68 1022.0
20260830151147 75 184 1.0 2.0 0.00 0.00 0.00 66 1021.9
20260830150642 74 198 0.0 0.0 0.00 0.00 0.00 67 1022.2
20260830150136 74 197 1.0 2.0 0.00 0.00 0.00 67 1022.5
20260830145636 73 193 0.0 0.0 0.00 0.00 0.00 69 1022.6
20260830145131 73 205 0.0 0.0 0.00 0.00 0.00 68 1022.6
20260830144627 74 193 0.0 0.0 0.00 0.00 0.00 67 1022.6
20260830144122 74 179 0.0 0.0 0.00 0.00 0.00 67 1022.6
20260830143618 73 206 0.0 0.0 0.00 0.00 0.00 69 1022.5
20260830143116 73 200 1.0 1.0 0.00 0.00 0.00 68 1022.4
20260830142612 74 165 1.0 1.0 0.00 0.00 0.00 68 1022.5
20260830142106 73 192 2.0 2.0 0.00 0.00 0.00 68 1022.7
20260830141602 73 63 1.0 3.0 0.00 0.00 0.00 68 1022.5
20260830141057 72 198 0.0 0.0 0.00 0.00 0.00 70 1022.2
20260830140556 72 232 0.0 0.0 0.00 0.00 0.00 71 1022.2
20260830140052 71 189 0.0 0.0 0.00 0.00 0.00 72 1022.5
20260830135547 71 204 0.0 0.0 0.00 0.00 0.00 73 1022.2
20260830135042 70 135 0.0 1.0 0.00 0.00 0.00 75 1022.3
20260830134538 70 205 0.0 0.0 0.00 0.00 0.00 75 1022.5
20260830134033 69 197 0.0 0.0 0.00 0.00 0.00 76 1022.5
20260830133529 69 194 0.0 0.0 0.00 0.00 0.00 77 1022.8
20260830133024 68 193 0.0 0.0 0.00 0.00 0.00 79 1022.5
20260830132520 68 195 0.0 0.0 0.00 0.00 0.00 81 1022.7
20260830132020 68 197 0.0 0.0 0.00 0.00 0.00 82 1022.6
20260830131519 68 286 0.0 0.0 0.00 0.00 0.00 83 1022.6
20260830131014 67 196 0.0 0.0 0.00 0.00 0.00 83 1022.9
20260830130509 67 194 0.0 0.0 0.00 0.00 0.00 85 1022.9
20260830130009 67 212 0.0 0.0 0.00 0.00 0.00 86 1023.1
20260830125504 67 198 0.0 0.0 0.00 0.00 0.00 88 1022.9
20260830125002 67 200 0.0 0.0 0.00 0.00 0.00 88 1022.9
20260830124457 66 196 0.0 0.0 0.00 0.00 0.00 89 1022.9
20260830123953 66 196 0.0 0.0 0.00 0.00 0.00 89 1022.9
20260830123450 65 195 0.0 0.0 0.00 0.00 0.00 92 1023.0
20260830122948 64 199 0.0 0.0 0.00 0.00 0.00 92 1022.9
20260830122447 63 195 0.0 0.0 0.00 0.00 0.00 93 1022.9
20260830121942 63 196 0.0 0.0 0.00 0.00 0.00 97 1023.0
20260830121437 62 194 0.0 0.0 0.00 0.00 0.00 99 1022.9
20260830120932 62 196 0.0 0.0 0.00 0.00 0.00 99 1023.0
20260830120427 62 196 0.0 0.0 0.00 0.00 0.00 99 1023.1
20260830115924 62 197 0.0 0.0 0.00 0.00 0.00 99 1023.2
20260830115420 62 196 0.0 0.0 0.00 0.00 0.00 99 1023.2
20260830114915 61 196 0.0 0.0 0.00 0.00 0.00 99 1023.2
20260830114412 61 201 0.0 0.0 0.00 0.00 0.00 99 1023.3
20260830113911 61 196 0.0 0.0 0.00 0.00 0.00 99 1023.3
20260830113406 61 196 0.0 0.0 0.00 0.00 0.00 99 1023.3
20260830112902 61 196 0.0 0.0 0.00 0.00 0.00 99 1023.3
20260830112357 61 197 0.0 0.0 0.00 0.00 0.00 99 1023.0
20260830111854 60 197 0.0 0.0 0.00 0.00 0.00 99 1023.2
20260830111349 60 197 0.0 0.0 0.00 0.00 0.00 99 1023.1
20260830110843 60 196 0.0 0.0 0.00 0.00 0.00 99 1023.1
20260830110340 60 197 0.0 0.0 0.00 0.00 0.00 99 1023.1
20260830105838 60 192 0.0 0.0 0.00 0.00 0.00 99 1023.0
20260830105336 60 196 0.0 0.0 0.00 0.00 0.00 99 1023.1
20260830104831 60 197 0.0 0.0 0.00 0.00 0.00 99 1023.0
20260830104328 60 196 0.0 0.0 0.00 0.00 0.00 99 1023.2
20260830103826 60 196 0.0 0.0 0.00 0.00 0.00 99 1023.1
20260830103323 60 197 0.0 0.0 0.00 0.00 0.00 99 1023.1
20260830102821 60 196 0.0 0.0 0.00 0.00 0.00 99 1023.0
20260830102317 60 194 0.0 0.0 0.00 0.00 0.00 99 1023.0
20260830101812 60 195 0.0 0.0 0.00 0.00 0.00 99 1023.0
20260830101308 60 194 0.0 0.0 0.00 0.00 0.00 99 1022.8
20260830100807 60 193 0.0 0.0 0.00 0.00 0.00 99 1022.8
20260830100301 60 196 0.0 0.0 0.00 0.00 0.00 99 1023.1
20260830095800 60 196 0.0 0.0 0.00 0.00 0.00 99 1022.7
20260830095257 60 198 0.0 0.0 0.00 0.00 0.00 99 1023.1
20260830094752 60 184 0.0 0.0 0.00 0.00 0.00 99 1023.1
20260830094248 60 195 0.0 0.0 0.00 0.00 0.00 99 1023.0
20260830093748 60 208 0.0 0.0 0.00 0.00 0.00 99 1023.2
20260830093244 60 194 0.0 0.0 0.00 0.00 0.00 99 1023.2
20260830092738 59 195 0.0 0.0 0.00 0.00 0.00 99 1023.0
20260830092235 59 205 0.0 0.0 0.00 0.00 0.00 99 1023.2
20260830091731 59 194 0.0 0.0 0.00 0.00 0.00 99 1023.0
20260830091231 59 194 0.0 0.0 0.00 0.00 0.00 99 1023.3
20260830090730 59 194 0.0 0.0 0.00 0.00 0.00 99 1023.1
20260830090226 59 194 0.0 0.0 0.00 0.00 0.00 99 1023.1
20260830085725 60 190 0.0 0.0 0.00 0.00 0.00 99 1022.9
20260830085221 59 191 0.0 0.0 0.00 0.00 0.00 99 1023.2
20260830084716 59 196 0.0 0.0 0.00 0.00 0.00 99 1023.2
20260830084212 59 196 0.0 0.0 0.00 0.00 0.00 99 1023.3
20260830083707 59 196 0.0 0.0 0.00 0.00 0.00 99 1023.6
20260830083202 59 196 0.0 0.0 0.00 0.00 0.00 99 1023.2
20260830082702 59 196 0.0 0.0 0.00 0.00 0.00 99 1023.4
20260830082157 59 196 0.0 0.0 0.00 0.00 0.00 99 1023.3
20260830081653 59 196 0.0 0.0 0.00 0.00 0.00 99 1023.5
20260830081152 59 195 0.0 0.0 0.00 0.00 0.00 99 1023.5
20260830080647 59 195 0.0 0.0 0.00 0.00 0.00 99 1023.3
20260830080142 59 196 0.0 0.0 0.00 0.00 0.00 99 1023.3
20260830075642 59 195 0.0 0.0 0.00 0.00 0.00 99 1023.1
20260830075137 59 194 0.0 0.0 0.00 0.00 0.00 99 1023.2
20260830074633 59 196 0.0 0.0 0.00 0.00 0.00 99 1023.3
20260830074129 59 194 0.0 0.0 0.00 0.00 0.00 99 1023.2
20260830073625 59 191 0.0 0.0 0.00 0.00 0.00 99 1023.2
20260830073120 59 194 0.0 0.0 0.00 0.00 0.00 99 1023.6
20260830072615 59 194 0.0 0.0 0.00 0.00 0.00 99 1023.3
20260830072115 58 192 0.0 0.0 0.00 0.00 0.00 99 1023.4
20260830071610 58 196 0.0 0.0 0.00 0.00 0.00 99 1023.2
20260830071108 58 196 0.0 0.0 0.00 0.00 0.00 99 1023.4
20260830070604 58 194 0.0 0.0 0.00 0.00 0.00 99 1023.2
20260830070058 58 194 0.0 0.0 0.00 0.00 0.00 99 1023.3
20260830065557 58 196 0.0 0.0 0.00 0.00 0.00 99 1023.3
20260830065055 58 194 0.0 0.0 0.00 0.00 0.00 99 1023.1
20260830064550 58 194 0.0 0.0 0.00 0.00 0.00 99 1023.2
20260830064045 58 194 0.0 0.0 0.00 0.00 0.00 99 1023.3
20260830063540 58 194 0.0 0.0 0.00 0.00 0.00 99 1023.2
20260830063039 58 191 0.0 0.0 0.00 0.00 0.00 99 1023.3
20260830062538 58 194 0.0 0.0 0.00 0.00 0.00 99 1023.4
20260830062034 58 194 0.0 0.0 0.00 0.00 0.00 99 1023.5
20260830061528 58 194 0.0 0.0 0.00 0.00 0.00 99 1023.5
20260830061025 58 193 0.0 0.0 0.00 0.00 0.00 99 1023.4
20260830060521 58 194 0.0 0.0 0.00 0.00 0.00 99 1023.2
20260830060017 58 194 0.0 0.0 0.00 0.00 0.00 99 1023.2
20260830055512 58 195 0.0 0.0 0.00 0.00 0.00 99 1023.3
20260830055008 58 194 0.0 0.0 0.00 0.00 0.00 99 1023.2
20260830054503 58 195 0.0 0.0 0.00 0.00 0.00 99 1023.5
20260830053958 58 196 0.0 0.0 0.00 0.00 0.00 99 1023.3
20260830053448 58 194 0.0 0.0 0.00 0.00 0.00 99 1023.2
20260830052946 58 194 0.0 0.0 0.00 0.00 0.00 99 1023.0
20260830052442 58 196 0.0 0.0 0.00 0.00 0.00 99 1022.9
20260830051937 58 193 0.0 0.0 0.00 0.00 0.00 99 1023.0
20260830051432 58 193 0.0 0.0 0.00 0.00 0.00 99 1022.9
20260830050932 58 194 0.0 0.0 0.00 0.00 0.00 99 1023.2
20260830050428 58 195 0.0 0.0 0.00 0.00 0.00 99 1023.2
20260830045926 58 196 0.0 0.0 0.00 0.00 0.00 99 1023.1
20260830045421 58 194 0.0 0.0 0.00 0.00 0.00 99 1023.3
20260830044920 58 192 0.0 0.0 0.00 0.00 0.00 99 1023.2
20260830044416 58 194 0.0 0.0 0.00 0.00 0.00 99 1023.4
20260830043910 58 194 0.0 0.0 0.00 0.00 0.00 99 1023.2
20260830043405 58 194 0.0 0.0 0.00 0.00 0.00 99 1023.1
20260830042903 58 194 0.0 0.0 0.00 0.00 0.00 99 1023.1
20260830042358 58 194 0.0 0.0 0.00 0.00 0.00 99 1023.2
20260830041857 58 194 0.0 0.0 0.00 0.00 0.00 99 1023.0
20260830041356 58 194 0.0 0.0 0.00 0.00 0.00 99 1022.9
20260830040852 58 195 0.0 0.0 0.00 0.00 0.00 99 1023.1
20260830040347 58 192 0.0 0.0 0.00 0.00 0.00 99 1023.0
20260830035846 58 194 0.0 0.0 0.00 0.00 0.00 98 1023.0
20260830035345 58 193 0.0 0.0 0.00 0.00 0.00 98 1023.2
20260830034841 58 194 0.0 0.0 0.00 0.00 0.00 98 1023.2
20260830034336 58 186 0.0 0.0 0.00 0.00 0.00 98 1023.2
20260830033831 58 192 0.0 0.0 0.00 0.00 0.00 98 1022.8
20260830033331 58 192 0.0 0.0 0.00 0.00 0.00 98 1023.5
20260830032827 58 194 0.0 0.0 0.00 0.00 0.00 98 1023.3
20260830032321 58 194 0.0 0.0 0.00 0.00 0.00 97 1023.0
20260830031816 58 194 0.0 0.0 0.00 0.00 0.00 97 1023.2
20260830031312 59 194 0.0 0.0 0.00 0.00 0.00 97 1023.1
20260830030807 59 194 0.0 0.0 0.00 0.00 0.00 97 1023.1
20260830030303 59 194 0.0 0.0 0.00 0.00 0.00 97 1023.1
20260830025802 59 194 0.0 0.0 0.00 0.00 0.00 97 1023.2
20260830025301 59 190 0.0 0.0 0.00 0.00 0.00 97 1023.1
20260830024801 59 194 0.0 0.0 0.00 0.00 0.00 96 1023.3
20260830024256 59 194 0.0 0.0 0.00 0.00 0.00 96 1023.2
20260830023753 59 191 0.0 0.0 0.00 0.00 0.00 96 1023.2
20260830023253 59 194 0.0 0.0 0.00 0.00 0.00 96 1023.1
20260830022752 59 192 0.0 0.0 0.00 0.00 0.00 96 1023.0
20260830022247 59 194 0.0 0.0 0.00 0.00 0.00 96 1022.9
20260830021742 59 194 0.0 0.0 0.00 0.00 0.00 96 1023.0
20260830021237 60 190 0.0 0.0 0.00 0.00 0.00 95 1023.1
20260830020736 60 192 0.0 0.0 0.00 0.00 0.00 95 1023.2
20260830020231 60 192 0.0 0.0 0.00 0.00 0.00 95 1023.2
20260830015731 60 190 0.0 0.0 0.00 0.00 0.00 95 1023.1
20260830015227 60 191 0.0 0.0 0.00 0.00 0.00 95 1023.3
20260830014722 60 188 0.0 0.0 0.00 0.00 0.00 94 1022.8
20260830014218 60 190 0.0 0.0 0.00 0.00 0.00 95 1023.2
20260830013713 60 194 0.0 0.0 0.00 0.00 0.00 94 1023.1
20260830013208 60 194 0.0 0.0 0.00 0.00 0.00 94 1022.9
20260830012703 60 190 0.0 0.0 0.00 0.00 0.00 94 1022.9
20260830012159 61 191 0.0 0.0 0.00 0.00 0.00 94 1023.2
20260830011654 61 190 0.0 0.0 0.00 0.00 0.00 94 1022.8
20260830011149 61 194 0.0 0.0 0.00 0.00 0.00 93 1022.8
20260830010644 61 190 0.0 0.0 0.00 0.00 0.00 93 1022.6
20260830010139 61 190 0.0 0.0 0.00 0.00 0.00 93 1022.7
20260830005637 61 191 0.0 0.0 0.00 0.00 0.00 93 1022.7
20260830005136 61 194 0.0 0.0 0.00 0.00 0.00 93 1022.6
20260830004631 62 195 0.0 0.0 0.00 0.00 0.00 92 1022.6
20260830004126 62 197 0.0 0.0 0.00 0.00 0.00 92 1022.5
20260830003621 62 191 0.0 0.0 0.00 0.00 0.00 91 1022.4
20260830003115 62 194 0.0 0.0 0.00 0.00 0.00 91 1022.5
20260830002614 63 189 0.0 0.0 0.00 0.00 0.00 91 1022.5